This is the latest recevied weather packets stored in our database for station/object K7FRY. If no packets are shown the sender has not sent any weather packets the latest 10 day(s).
| Time | Temp. | Humidity | Pressure | Rain* | Wind** | Luminosity | Snow |
|---|---|---|---|---|---|---|---|
| 1777475636 | 21.11° C | 22% | 1018.5 hPa | 0 mm | - | 365 W/m² | - |
| 1777475332 | 20.56° C | 23% | 1018.4 hPa | 0 mm | - | 374 W/m² | - |
| 1777475027 | 20.56° C | 23% | 1018.2 hPa | 0 mm | - | 335 W/m² | - |
| 1777474724 | 19.44° C | 24% | 1018 hPa | 0 mm | - | 85 W/m² | - |
| 1777474421 | 18.89° C | 24% | 1017.9 hPa | 0 mm | - | 105 W/m² | - |
| 1777474117 | 17.78° C | 25% | 1018.4 hPa | 0 mm | - | 193 W/m² | - |
| 1777473816 | 16.67° C | 26% | 1018.4 hPa | 0 mm | - | 113 W/m² | - |
| 1777473512 | 16.67° C | 27% | 1018.2 hPa | 0 mm | - | 92 W/m² | - |
| 1777473207 | 16.67° C | 29% | 1018.2 hPa | 0 mm | - | 88 W/m² | - |
| 1777472904 | 16.67° C | 28% | 1018 hPa | 0 mm | - | 92 W/m² | - |
| 1777472601 | 16.11° C | 28% | 1018 hPa | 0 mm | - | 98 W/m² | - |
| 1777472298 | 16.11° C | 29% | 1018 hPa | 0 mm | - | 77 W/m² | - |
| 1777471995 | 16.11° C | 29% | 1017.9 hPa | 0 mm | - | 73 W/m² | - |
| 1777471690 | 16.11° C | 30% | 1018 hPa | 0 mm | - | 75 W/m² | - |
| 1777471387 | 15.56° C | 30% | 1017.8 hPa | 0 mm | - | 80 W/m² | - |
| 1777471084 | 15.56° C | 30% | 1017.9 hPa | 0 mm | - | 82 W/m² | - |
| 1777470780 | 16.11° C | 30% | 1017.7 hPa | 0 mm | - | 60 W/m² | - |
| 1777470476 | 16.67° C | 29% | 1017.8 hPa | 0 mm | - | 57 W/m² | - |
| 1777470173 | 16.67° C | 28% | 1017.6 hPa | 0 mm | - | 57 W/m² | - |
| 1777469869 | 16.67° C | 28% | 1017.6 hPa | 0 mm | - | 43 W/m² | - |
| 1777469566 | 16.11° C | 28% | 1017.6 hPa | 0 mm | - | 46 W/m² | - |
| 1777469260 | 16.11° C | 28% | 1017.6 hPa | 0 mm | - | 45 W/m² | - |
| 1777468955 | 16.11° C | 28% | 1017.6 hPa | 0 mm | - | 47 W/m² | - |
| 1777468652 | 15.56° C | 29% | 1017.9 hPa | 0 mm | - | 40 W/m² | - |
| 1777468348 | 15.56° C | 29% | 1017.8 hPa | 0 mm | - | 36 W/m² | - |
* Rain latest hour (hover to see other rain measurements)
** Current wind speed in m/s (hover to see current wind gust speed)